Precipitable_Water
0.99 1.02 1.04 1.07 1.06 1.05 1.07 1.09 1.10 1.09 1.12 1.14 1.17 1.19 1.20 1.18 1.15 1.15 1.12 1.10 1.06 1.05 1.11 1.14 1.20 1.27 1.29 1.36 1.41 1.41 1.41 1.40 1.38 1.38 1.38 1.37 1.37 1.35 1.35 1.36 1.34 1.32 1.28 1.18 1.13 1.08 1.08 1.10 1.07 1.05 1.06 1.08 1.10 1.09 1.05 1.00 0.94 0.91 0.90 0.92 0.93 0.96 1.00
0.86 0.93 1.00 1.06 1.05 1.08 1.12 1.14 1.15 1.15 1.16 1.18 1.20 1.23 1.25 1.22 1.20 1.16 1.11 1.07 1.03 1.01 1.06 1.12 1.17 1.22 1.27 1.34 1.41 1.44 1.42 1.40 1.38 1.38 1.36 1.35 1.37 1.38 1.40 1.39 1.37 1.35 1.32 1.27 1.23 1.19 1.13 1.09 1.06 1.04 1.03 1.06 1.07 1.11 1.08 1.03 0.97 0.92 0.90 0.92 0.94 0.98 1.01
0.79 0.86 0.94 1.00 1.03 1.07 1.12 1.17 1.18 1.18 1.19 1.21 1.23 1.24 1.24 1.21 1.17 1.13 1.13 1.11 1.05 1.01 1.05 1.10 1.14 1.19 1.27 1.34 1.37 1.40 1.42 1.40 1.33 1.31 1.28 1.28 1.31 1.35 1.41 1.43 1.41 1.35 1.29 1.28 1.27 1.23 1.20 1.16 1.17 1.15 1.10 1.06 1.06 1.07 1.06 1.03 1.00 0.94 0.91 0.92 0.93 0.96 1.00
0.74 0.79 0.86 0.96 1.03 1.08 1.11 1.12 1.13 1.17 1.21 1.24 1.23 1.24 1.24 1.22 1.18 1.15 1.15 1.12 1.06 1.04 1.02 1.07 1.14 1.18 1.24 1.28 1.33 1.37 1.40 1.40 1.36 1.33 1.29 1.27 1.28 1.35 1.42 1.46 1.44 1.38 1.27 1.20 1.20 1.18 1.16 1.17 1.19 1.22 1.22 1.16 1.10 1.07 1.05 1.03 1.02 0.97 0.93 0.92 0.92 0.93 0.94
0.71 0.79 0.87 0.92 0.98 1.05 1.10 1.11 1.11 1.15 1.18 1.23 1.26 1.27 1.25 1.24 1.22 1.19 1.16 1.14 1.12 1.11 1.10 1.10 1.17 1.21 1.25 1.30 1.33 1.37 1.37 1.37 1.35 1.33 1.31 1.30 1.33 1.40 1.43 1.41 1.37 1.32 1.24 1.19 1.16 1.15 1.16 1.17 1.19 1.22 1.25 1.23 1.17 1.13 1.08 1.08 1.05 1.02 0.96 0.94 0.91 0.92 0.91
0.70 0.76 0.80 0.87 0.94 1.00 1.04 1.07 1.08 1.10 1.12 1.16 1.19 1.22 1.25 1.26 1.25 1.20 1.18 1.17 1.16 1.20 1.24 1.23 1.20 1.20 1.20 1.26 1.31 1.31 1.33 1.32 1.31 1.28 1.25 1.25 1.30 1.38 1.45 1.45 1.39 1.33 1.25 1.19 1.19 1.19 1.21 1.22 1.23 1.24 1.25 1.25 1.23 1.18 1.11 1.09 1.07 1.03 0.96 0.96 0.94 0.94 0.91
0.65 0.73 0.80 0.85 0.90 0.96 0.99 1.01 1.03 1.08 1.13 1.16 1.21 1.23 1.23 1.23 1.21 1.17 1.18 1.19 1.20 1.18 1.22 1.27 1.28 1.24 1.21 1.24 1.24 1.27 1.26 1.26 1.22 1.21 1.25 1.27 1.34 1.41 1.52 1.52 1.48 1.42 1.33 1.24 1.19 1.21 1.23 1.24 1.23 1.25 1.27 1.27 1.24 1.20 1.15 1.08 1.07 1.05 1.02 1.00 0.97 0.97 0.94
0.58 0.67 0.78 0.84 0.88 0.93 0.95 0.95 0.99 1.05 1.12 1.17 1.16 1.17 1.18 1.21 1.22 1.19 1.17 1.18 1.24 1.29 1.32 1.32 1.37 1.36 1.33 1.31 1.27 1.25 1.21 1.21 1.21 1.19 1.22 1.28 1.39 1.53 1.66 1.64 1.56 1.49 1.36 1.21 1.24 1.33 1.31 1.30 1.27 1.27 1.29 1.24 1.20 1.19 1.18 1.14 1.11 1.10 1.06 1.03 0.99 0.96 0.97
0.61 0.66 0.75 0.83 0.88 0.92 0.91 0.92 0.94 0.98 1.00 1.02 1.05 1.10 1.14 1.19 1.19 1.20 1.21 1.24 1.29 1.31 1.35 1.40 1.42 1.44 1.42 1.37 1.29 1.25 1.31 1.34 1.29 1.28 1.31 1.37 1.45 1.55 1.60 1.55 1.53 1.54 1.34 1.28 1.25 1.31 1.29 1.27 1.28 1.31 1.30 1.23 1.18 1.19 1.20 1.21 1.20 1.17 1.10 1.07 1.02 0.96 0.96
0.62 0.69 0.78 0.84 0.90 0.91 0.92 0.94 0.97 0.98 0.98 0.98 1.01 1.06 1.11 1.15 1.18 1.24 1.29 1.31 1.32 1.31 1.35 1.42 1.46 1.49 1.48 1.45 1.39 1.39 1.37 1.35 1.32 1.31 1.33 1.34 1.39 1.43 1.48 1.52 1.55 1.51 1.36 1.27 1.33 1.28 1.26 1.30 1.32 1.33 1.30 1.24 1.21 1.20 1.21 1.23 1.23 1.19 1.14 1.09 1.04 0.98 0.94
0.68 0.74 0.79 0.82 0.83 0.86 0.89 0.90 0.88 0.89 0.93 0.95 0.96 1.00 1.05 1.11 1.18 1.24 1.29 1.34 1.36 1.37 1.43 1.46 1.50 1.50 1.51 1.52 1.53 1.50 1.44 1.37 1.27 1.23 1.23 1.23 1.27 1.34 1.44 1.49 1.47 1.44 1.36 1.24 1.33 1.44 1.44 1.43 1.42 1.36 1.34 1.29 1.23 1.20 1.21 1.20 1.21 1.17 1.12 1.08 1.06 1.01 0.96
0.68 0.72 0.73 0.77 0.80 0.80 0.78 0.82 0.86 0.89 0.91 0.92 0.94 0.97 1.03 1.08 1.14 1.22 1.29 1.33 1.38 1.40 1.43 1.47 1.52 1.53 1.52 1.54 1.57 1.51 1.47 1.36 1.24 1.19 1.28 1.33 1.30 1.31 1.39 1.40 1.43 1.41 1.37 1.30 1.28 1.37 1.38 1.43 1.45 1.40 1.35 1.34 1.28 1.24 1.21 1.19 1.17 1.16 1.13 1.09 1.06 1.03 1.02
0.61 0.71 0.70 0.71 0.72 0.76 0.83 0.85 0.81 0.85 0.90 0.91 0.94 0.99 1.04 1.08 1.12 1.17 1.23 1.28 1.35 1.40 1.43 1.47 1.50 1.52 1.53 1.57 1.58 1.51 1.50 1.50 1.39 1.30 1.20 1.20 1.34 1.40 1.42 1.45 1.48 1.48 1.39 1.28 1.33 1.33 1.35 1.46 1.45 1.44 1.44 1.42 1.36 1.28 1.23 1.17 1.17 1.18 1.16 1.13 1.09 1.07 1.07
0.59 0.70 0.73 0.73 0.73 0.73 0.72 0.74 0.80 0.85 0.90 0.92 0.96 1.02 1.07 1.13 1.15 1.17 1.19 1.22 1.31 1.39 1.42 1.47 1.48 1.49 1.51 1.55 1.53 1.51 1.53 1.61 1.66 1.38 1.18 1.20 1.35 1.49 1.47 1.43 1.45 1.54 1.38 1.35 1.34 1.35 1.37 1.46 1.46 1.44 1.46 1.47 1.45 1.38 1.31 1.23 1.18 1.19 1.19 1.17 1.14 1.12 1.12
0.55 0.59 0.70 0.70 0.68 0.69 0.70 0.70 0.75 0.82 0.88 0.92 0.96 0.98 1.04 1.10 1.15 1.20 1.24 1.27 1.31 1.35 1.37 1.43 1.43 1.44 1.47 1.51 1.50 1.53 1.61 1.62 1.63 1.64 1.45 1.25 1.25 1.32 1.46 1.54 1.59 1.67 1.52 1.38 1.34 1.32 1.34 1.44 1.45 1.42 1.44 1.47 1.47 1.42 1.36 1.28 1.21 1.19 1.17 1.15 1.14 1.15 1.16
0.55 0.58 0.63 0.68 0.68 0.66 0.66 0.71 0.79 0.83 0.88 0.90 0.91 0.95 1.01 1.06 1.10 1.13 1.15 1.18 1.24 1.28 1.34 1.38 1.33 1.32 1.37 1.42 1.49 1.53 1.55 1.58 1.63 1.65 1.64 1.52 1.30 1.28 1.35 1.41 1.48 1.60 1.45 1.35 1.34 1.33 1.41 1.50 1.44 1.39 1.42 1.42 1.43 1.41 1.37 1.31 1.27 1.22 1.20 1.19 1.17 1.19 1.21
0.51 0.54 0.60 0.69 0.71 0.68 0.69 0.75 0.81 0.86 0.87 0.90 0.93 0.96 1.01 1.05 1.08 1.12 1.16 1.20 1.24 1.23 1.32 1.35 1.33 1.37 1.42 1.47 1.50 1.55 1.61 1.62 1.66 1.68 1.65 1.62 1.56 1.40 1.32 1.39 1.48 1.52 1.51 1.51 1.49 1.45 1.54 1.57 1.42 1.38 1.42 1.39 1.37 1.37 1.37 1.33 1.31 1.30 1.27 1.23 1.21 1.25 1.27
0.52 0.55 0.61 0.68 0.70 0.69 0.71 0.75 0.79 0.82 0.84 0.89 0.96 1.01 1.04 1.07 1.11 1.13 1.14 1.22 1.27 1.34 1.44 1.49 1.52 1.55 1.58 1.60 1.59 1.60 1.58 1.58 1.61 1.64 1.68 1.72 1.72 1.71 1.62 1.51 1.46 1.53 1.57 1.60 1.59 1.53 1.51 1.55 1.52 1.48 1.50 1.41 1.38 1.37 1.37 1.37 1.38 1.36 1.34 1.30 1.28 1.29 1.31
0.53 0.55 0.60 0.65 0.68 0.68 0.72 0.75 0.79 0.81 0.85 0.94 0.99 1.03 1.07 1.11 1.12 1.12 1.19 1.25 1.36 1.47 1.51 1.53 1.55 1.57 1.58 1.63 1.63 1.59 1.57 1.59 1.64 1.71 1.75 1.82 1.84 1.82 1.78 1.62 1.47 1.50 1.52 1.55 1.57 1.52 1.49 1.52 1.58 1.57 1.56 1.43 1.34 1.36 1.40 1.39 1.38 1.40 1.40 1.37 1.35 1.33 1.33
0.63 0.65 0.67 0.71 0.77 0.84 0.89 0.91 0.92 0.93 0.94 0.96 1.01 1.06 1.11 1.14 1.15 1.23 1.31 1.38 1.45 1.48 1.53 1.54 1.58 1.60 1.60 1.63 1.64 1.63 1.62 1.64 1.67 1.69 1.73 1.68 1.60 1.66 1.59 1.61 1.51 1.51 1.56 1.56 1.54 1.52 1.51 1.57 1.55 1.53 1.54 1.44 1.36 1.36 1.36 1.31 1.32 1.35 1.41 1.43 1.41 1.40 1.41
0.60 0.64 0.67 0.70 0.76 0.85 0.95 0.97 1.00 1.01 1.02 1.04 1.09 1.17 1.21 1.22 1.25 1.29 1.31 1.34 1.35 1.41 1.44 1.49 1.53 1.55 1.57 1.56 1.58 1.57 1.55 1.54 1.53 1.52 1.52 1.61 1.66 1.61 1.55 1.54 1.56 1.50 1.49 1.46 1.48 1.49 1.49 1.49 1.49 1.44 1.47 1.48 1.43 1.29 1.25 1.30 1.36 1.44 1.52 1.51 1.48 1.47 1.47
0.61 0.63 0.64 0.71 0.77 0.83 0.93 0.96 1.01 1.08 1.14 1.22 1.22 1.16 1.12 1.10 1.13 1.10 1.08 1.14 1.17 1.22 1.27 1.30 1.30 1.34 1.37 1.37 1.36 1.38 1.41 1.41 1.41 1.45 1.48 1.50 1.54 1.51 1.45 1.39 1.33 1.32 1.36 1.38 1.42 1.46 1.42 1.39 1.44 1.50 1.51 1.51 1.35 1.22 1.22 1.34 1.41 1.49 1.52 1.51 1.47 1.47 1.46
0.66 0.67 0.73 0.81 0.88 0.95 0.94 1.00 1.07 1.17 1.19 1.11 1.07 1.04 1.02 1.03 1.04 1.00 1.01 1.03 1.08 1.07 1.06 1.04 1.03 1.04 1.08 1.10 1.20 1.27 1.32 1.34 1.33 1.36 1.40 1.43 1.42 1.38 1.31 1.27 1.30 1.33 1.37 1.34 1.40 1.40 1.34 1.35 1.42 1.47 1.48 1.37 1.27 1.22 1.26 1.34 1.43 1.51 1.52 1.47 1.42 1.39 1.38
0.72 0.76 0.81 0.88 0.97 1.04 1.08 1.04 1.03 1.08 1.08 1.04 1.02 1.01 1.01 0.99 0.98 0.99 0.99 1.03 1.07 1.07 1.05 1.04 1.05 1.11 1.15 1.18 1.24 1.28 1.33 1.35 1.34 1.33 1.37 1.40 1.38 1.32 1.29 1.27 1.27 1.27 1.31 1.27 1.28 1.28 1.33 1.38 1.40 1.38 1.31 1.19 1.20 1.25 1.24 1.24 1.35 1.45 1.46 1.40 1.37 1.37 1.35
0.76 0.82 0.88 0.96 0.99 1.01 1.02 0.97 0.96 0.99 1.04 1.05 0.98 0.98 0.99 0.98 0.97 0.96 0.96 0.99 1.03 1.05 1.04 1.05 1.10 1.15 1.20 1.26 1.31 1.34 1.36 1.40 1.43 1.43 1.43 1.39 1.33 1.26 1.20 1.18 1.19 1.22 1.22 1.21 1.22 1.23 1.28 1.30 1.28 1.25 1.19 1.19 1.25 1.26 1.22 1.22 1.28 1.34 1.38 1.40 1.37 1.32 1.27
0.85 0.89 0.94 0.96 0.99 1.02 1.00 1.00 0.97 0.96 0.97 0.94 0.92 0.97 0.96 0.95 0.94 0.93 0.96 1.00 1.05 1.04 1.03 1.06 1.10 1.19 1.26 1.28 1.31 1.34 1.37 1.40 1.43 1.45 1.41 1.35 1.28 1.25 1.20 1.18 1.19 1.19 1.17 1.16 1.17 1.19 1.22 1.23 1.22 1.18 1.15 1.19 1.23 1.26 1.22 1.21 1.27 1.31 1.29 1.28 1.25 1.21 1.18
0.96 0.97 0.95 0.95 0.96 0.98 0.97 0.98 0.98 0.93 0.90 0.91 0.94 0.95 0.97 0.98 0.97 0.98 1.00 1.00 1.01 1.01 1.06 1.12 1.20 1.22 1.25 1.28 1.31 1.34 1.38 1.42 1.44 1.45 1.42 1.33 1.28 1.27 1.25 1.26 1.23 1.17 1.12 1.11 1.12 1.13 1.13 1.13 1.13 1.12 1.13 1.17 1.21 1.19 1.20 1.24 1.24 1.24 1.23 1.25 1.25 1.24 1.20
0.96 0.97 1.00 1.01 1.02 1.01 1.01 1.02 1.00 0.99 0.97 0.98 1.00 1.02 1.03 1.03 1.00 1.01 1.00 1.00 1.00 1.06 1.15 1.21 1.24 1.27 1.27 1.30 1.32 1.36 1.38 1.41 1.46 1.46 1.37 1.34 1.29 1.26 1.26 1.27 1.21 1.13 1.09 1.09 1.09 1.07 1.05 1.05 1.07 1.08 1.10 1.14 1.16 1.17 1.20 1.26 1.28 1.30 1.28 1.27 1.25 1.21 1.18
0.95 0.97 0.99 1.01 1.03 1.09 1.07 1.05 1.03 0.99 0.98 1.01 1.02 1.03 1.04 1.03 0.99 0.98 0.99 0.98 1.05 1.13 1.19 1.25 1.28 1.28 1.29 1.30 1.32 1.35 1.38 1.41 1.41 1.37 1.34 1.29 1.31 1.29 1.27 1.26 1.17 1.11 1.09 1.06 1.05 1.04 1.01 1.02 1.05 1.04 1.03 1.06 1.12 1.19 1.24 1.29 1.31 1.28 1.27 1.22 1.17 1.14 1.11
0.96 1.00 0.98 0.97 0.97 0.99 1.01 1.01 1.03 1.01 1.02 1.03 1.04 1.04 1.05 1.03 0.97 0.97 0.98 1.02 1.13 1.16 1.21 1.23 1.26 1.26 1.26 1.29 1.32 1.37 1.39 1.41 1.37 1.32 1.29 1.32 1.34 1.32 1.26 1.21 1.16 1.10 1.05 1.05 1.06 1.05 1.03 1.06 1.08 1.05 1.03 1.03 1.08 1.17 1.23 1.27 1.29 1.23 1.18 1.15 1.12 1.07 1.07
0.93 0.92 0.91 0.91 0.92 0.95 0.95 0.96 0.97 1.00 1.01 1.07 1.07 1.08 1.08 1.03 0.95 0.96 0.96 1.05 1.12 1.13 1.15 1.20 1.25 1.27 1.26 1.28 1.32 1.35 1.38 1.35 1.30 1.28 1.31 1.32 1.31 1.27 1.26 1.21 1.17 1.11 1.08 1.05 1.04 1.06 1.07 1.08 1.08 1.03 1.02 1.06 1.08 1.14 1.22 1.23 1.16 1.11 1.11 1.10 1.06 1.05 1.04
0.99 0.99 0.98 0.98 0.96 0.97 0.97 0.98 0.97 0.98 0.99 1.04 1.09 1.09 1.11 1.06 0.98 0.91 0.98 1.07 1.11 1.15 1.18 1.21 1.25 1.27 1.26 1.28 1.30 1.32 1.32 1.26 1.27 1.30 1.29 1.28 1.29 1.29 1.29 1.26 1.22 1.20 1.21 1.17 1.10 1.09 1.09 1.07 1.05 1.04 1.03 1.04 1.10 1.11 1.07 1.05 1.06 1.06 1.10 1.10 1.07 1.04 1.02
0.98 0.98 0.97 0.97 1.01 1.03 1.01 0.99 0.97 0.97 0.96 0.99 1.06 1.09 1.07 1.05 1.05 1.05 1.08 1.11 1.18 1.22 1.27 1.31 1.30 1.24 1.23 1.25 1.27 1.26 1.23 1.20 1.23 1.25 1.25 1.26 1.27 1.28 1.29 1.30 1.27 1.25 1.24 1.21 1.16 1.11 1.06 1.02 0.99 1.00 1.03 0.96 0.95 0.95 0.97 1.00 1.04 1.08 1.09 1.07 1.04 0.99 0.94
0.99 0.99 1.02 1.04 1.05 1.06 1.04 1.02 0.99 1.00 1.01 1.03 1.07 1.13 1.13 1.12 1.11 1.15 1.17 1.20 1.23 1.25 1.26 1.26 1.25 1.22 1.21 1.20 1.19 1.16 1.16 1.19 1.23 1.23 1.22 1.25 1.24 1.24 1.26 1.28 1.27 1.23 1.20 1.17 1.14 1.06 1.00 0.97 0.97 0.92 0.88 0.87 0.88 0.93 0.97 1.01 1.05 1.04 1.00 0.99 0.96 0.93 0.91
0.98 0.98 1.02 1.03 1.05 1.05 1.01 1.01 1.01 1.01 1.01 1.02 1.10 1.13 1.13 1.14 1.16 1.18 1.20 1.23 1.22 1.22 1.18 1.18 1.19 1.20 1.18 1.18 1.15 1.13 1.17 1.20 1.23 1.22 1.21 1.24 1.25 1.25 1.24 1.21 1.20 1.18 1.17 1.17 1.16 1.12 1.06 1.02 0.96 0.92 0.92 0.92 0.93 0.93 0.93 0.94 0.93 0.97 1.01 0.97 0.94 0.91 0.89
0.97 0.96 0.97 1.02 1.05 1.04 1.03 1.03 1.04 1.04 1.05 1.06 1.11 1.13 1.13 1.13 1.14 1.15 1.15 1.17 1.17 1.20 1.17 1.17 1.15 1.11 1.09 1.09 1.08 1.11 1.16 1.19 1.22 1.24 1.23 1.23 1.24 1.17 1.15 1.14 1.07 1.02 0.99 1.01 1.03 1.04 1.03 1.00 0.97 0.96 0.94 0.93 0.97 0.98 0.94 0.94 1.00 1.02 0.97 0.95 0.93 0.92 0.93
0.94 0.93 0.95 0.98 0.98 0.99 1.00 1.03 1.07 1.09 1.07 1.11 1.15 1.14 1.14 1.14 1.14 1.14 1.16 1.16 1.18 1.18 1.17 1.12 1.04 1.02 1.01 1.03 1.05 1.11 1.14 1.16 1.18 1.22 1.25 1.25 1.21 1.13 1.05 0.98 0.96 0.98 0.97 0.95 0.95 0.95 0.95 0.93 0.89 0.88 0.91 0.94 0.92 0.96 1.01 1.03 1.02 0.97 0.93 0.91 0.91 0.93 0.96
0.99 0.99 1.00 1.02 1.01 1.01 1.02 1.03 1.05 1.05 1.07 1.11 1.13 1.15 1.14 1.13 1.17 1.19 1.19 1.19 1.17 1.15 1.11 1.08 1.03 1.00 0.99 1.01 1.06 1.08 1.10 1.11 1.14 1.16 1.17 1.16 1.15 1.11 1.04 0.95 0.89 0.89 0.91 0.91 0.90 0.92 0.89 0.84 0.85 0.88 0.90 0.92 0.96 0.98 1.01 1.01 0.96 0.92 0.90 0.91 0.93 0.95 0.98
Wind_Speed
18 20 22 22 22 22 22 21 20 19 19 19 20 21 21 21 21 21 21 21 22 21 20 20 19 19 18 18 17 16 16 16 16 15 15 14 14 13 13 13 13 13 13 13 13 14 14 14 14 13 13 13 12 12 12 12 12 12 12 12 11 12 12
17 18 20 21 22 22 22 22 21 20 20 20 20 21 22 21 21 21 21 22 22 22 21 20 20 19 19 18 18 17 17 17 16 16 15 15 15 14 14 14 14 14 14 14 15 15 15 15 15 15 14 14 14 14 14 14 14 13 13 13 13 13 14
17 18 20 22 23 22 22 22 22 22 21 21 21 21 22 22 22 23 22 22 22 22 21 21 21 20 20 19 18 18 18 18 17 17 17 16 16 16 16 16 16 15 15 15 16 16 16 16 16 16 16 15 15 15 15 16 15 15 15 14 15 15 15
19 19 20 21 22 22 22 22 22 22 22 22 22 22 22 22 23 23 23 23 22 22 22 22 21 21 20 20 19 19 19 19 18 18 18 18 18 17 17 17 17 17 17 17 17 17 17 17 16 17 17 17 17 17 17 17 17 16 16 16 16 16 16
18 19 20 21 21 21 21 21 22 22 23 23 23 22 22 23 23 22 23 23 23 23 23 22 21 21 21 20 20 20 20 20 20 20 19 19 19 19 19 19 19 19 18 18 18 18 18 18 18 18 18 18 18 18 18 18 17 17 17 17 17 17 17
15 17 20 21 21 22 22 22 22 22 23 23 23 22 22 22 22 22 22 23 23 23 22 22 21 21 21 21 21 21 21 21 21 21 21 21 21 20 20 20 19 19 19 19 19 19 19 19 19 19 19 19 19 19 18 18 18 18 17 18 18 18 18
15 17 19 21 22 22 22 22 22 23 23 23 22 22 22 22 22 22 22 22 23 23 22 21 21 21 21 21 22 22 22 22 22 22 22 22 22 22 21 21 20 20 20 19 19 20 20 20 19 19 20 20 20 20 19 20 19 19 18 18 18 18 18
17 17 19 21 22 22 21 20 21 22 22 22 22 22 22 22 21 22 22 22 22 22 22 21 21 21 21 21 22 23 23 23 23 23 23 23 23 23 22 22 22 22 21 21 21 21 21 20 20 20 20 20 21 21 21 21 21 20 19 19 19 19 19
17 18 19 21 22 21 19 18 19 21 22 22 22 22 22 22 21 21 21 21 21 21 22 22 21 22 22 22 22 23 23 23 23 23 24 24 24 24 24 24 25 24 23 23 22 22 22 22 22 22 21 21 22 22 22 22 22 21 20 20 20 20 19
16 17 19 20 21 20 18 18 18 19 20 20 20 21 21 22 21 21 21 21 21 21 22 22 21 22 22 23 23 23 23 23 23 24 25 26 26 26 26 26 26 27 26 25 24 24 23 24 24 23 22 22 23 23 23 23 22 22 22 21 21 20 20
15 16 18 20 20 19 18 18 17 17 19 19 19 20 20 21 21 21 21 21 21 21 21 22 22 22 22 23 23 23 24 25 26 26 27 28 28 28 28 28 28 28 28 28 27 26 26 26 26 25 24 23 23 23 23 23 22 22 22 21 21 20 20
15 16 18 19 19 19 18 18 17 17 18 18 19 19 19 20 21 21 21 21 22 22 22 22 22 22 22 23 23 24 25 26 27 26 26 27 28 29 29 29 28 29 29 29 29 28 28 28 27 27 26 25 24 24 24 23 22 22 22 21 21 20 19
17 17 18 19 19 18 18 17 17 18 18 18 18 18 18 19 20 21 21 21 22 22 22 22 22 22 22 22 23 24 25 26 27 27 27 27 28 28 29 29 30 30 30 30 29 28 27 28 28 28 28 26 25 25 24 24 23 23 22 21 21 20 20
18 19 19 20 19 19 18 18 18 18 18 18 18 19 19 19 20 20 20 21 21 22 22 22 22 22 22 22 23 24 24 25 26 27 28 28 28 28 28 29 30 31 31 30 27 26 26 26 26 27 27 27 27 27 26 25 25 24 23 22 21 21 21
20 20 21 22 21 20 19 18 18 18 18 18 19 19 19 19 19 19 19 20 20 21 22 22 22 22 22 22 22 22 23 23 24 26 27 28 29 29 29 28 28 29 29 28 26 25 25 24 24 24 24 25 27 28 27 27 26 25 24 23 22 22 22
20 21 23 24 23 21 20 19 19 18 18 18 19 20 20 19 19 19 19 19 20 20 21 21 21 21 22 22 22 22 22 22 23 24 26 27 28 28 28 28 27 27 27 27 27 26 24 23 23 23 23 24 26 27 28 28 27 27 26 25 24 24 23
20 21 23 24 24 22 20 20 19 18 18 19 19 20 20 19 18 19 19 19 20 20 20 20 21 21 21 21 22 22 22 22 23 23 24 25 26 27 27 27 27 27 27 28 28 27 25 24 24 24 24 24 25 26 27 28 28 28 28 27 27 26 25
21 21 22 23 23 22 22 21 20 19 19 19 19 20 20 20 19 19 19 19 20 20 20 21 21 21 21 22 22 22 22 22 23 24 24 24 24 25 25 25 26 26 26 26 27 28 28 28 27 26 25 25 25 26 26 27 28 28 29 28 28 28 27
21 21 21 22 22 22 22 22 21 20 19 19 19 20 20 20 20 20 20 20 20 20 20 21 22 22 22 22 22 22 22 22 23 23 23 23 23 24 25 25 25 24 24 25 26 27 29 30 30 29 27 26 26 25 25 26 27 28 29 28 28 28 28
21 20 20 20 20 21 22 22 21 20 20 19 19 19 20 20 20 20 19 19 20 20 21 22 22 22 22 22 22 22 22 23 22 21 21 22 23 23 23 23 23 23 24 26 26 25 26 28 31 30 28 27 26 25 25 26 27 28 28 28 27 27 28
22 21 21 20 20 21 22 22 21 21 21 20 20 20 19 19 19 18 17 17 19 20 21 22 22 22 23 23 23 23 22 22 22 21 22 23 23 23 23 23 23 24 25 26 26 25 24 25 28 29 27 26 25 24 25 26 26 27 27 27 27 28 29
22 22 22 22 22 22 22 22 21 21 21 21 20 20 18 18 17 16 16 16 17 18 19 20 20 21 22 22 22 22 22 23 23 23 24 24 23 24 25 25 25 26 25 25 26 26 25 24 26 26 25 24 23 24 25 25 23 24 25 26 27 28 29
22 22 22 23 22 21 22 22 21 21 21 20 20 19 17 16 16 16 16 17 17 17 17 18 18 19 20 21 21 22 22 23 24 24 24 25 25 26 26 26 26 25 25 26 26 26 24 24 23 23 23 23 22 23 24 23 21 22 24 25 26 27 27
22 22 22 22 21 21 21 21 21 21 21 20 19 18 17 16 16 16 17 17 17 17 17 17 18 19 20 20 21 22 23 23 24 25 25 26 26 25 24 24 25 25 25 26 26 25 23 22 21 21 22 22 22 23 23 21 21 22 23 24 25 26 27
20 20 20 20 21 21 21 20 20 21 22 21 20 18 17 17 16 17 17 18 18 18 18 19 19 19 20 20 21 22 23 24 25 26 26 26 24 23 23 23 23 23 24 24 24 23 21 21 21 21 21 21 22 21 20 20 21 22 23 24 25 25 27
18 18 19 19 20 20 19 19 20 21 21 20 19 18 18 17 17 17 18 18 19 20 20 21 21 21 21 21 22 23 24 25 25 25 25 24 23 22 23 23 23 23 23 23 22 21 21 20 20 19 20 21 21 20 19 19 20 20 22 24 25 26 28
16 16 18 18 19 18 19 19 20 20 20 19 18 18 18 18 18 18 18 18 19 20 21 22 22 22 22 23 24 25 26 25 25 24 23 22 22 23 23 23 23 23 22 21 20 20 19 18 18 18 19 20 19 18 18 19 19 19 21 24 27 29 29
15 16 16 17 17 17 18 19 19 19 19 19 18 18 18 19 18 18 19 20 21 22 23 23 23 23 24 24 25 26 26 26 25 23 23 23 23 23 23 22 22 21 20 20 19 18 17 17 17 17 17 17 17 17 18 19 19 20 22 25 28 29 28
15 16 16 16 16 16 17 18 18 18 19 19 19 19 19 19 19 19 20 21 23 24 25 26 26 26 26 27 27 28 27 26 25 24 24 23 23 23 22 22 21 19 19 19 18 18 17 17 16 16 17 17 17 17 18 20 21 23 25 26 26 25 24
13 14 15 15 15 15 16 18 19 19 19 19 19 20 20 20 20 21 22 23 25 27 27 28 29 29 29 29 29 28 26 25 25 24 23 22 22 21 21 21 20 18 18 19 18 18 18 17 16 17 17 18 19 19 21 22 23 25 25 25 24 23 23
13 14 14 15 16 16 17 19 19 19 19 20 20 20 21 21 21 23 24 25 27 28 28 28 28 28 28 27 26 24 24 23 23 22 22 21 20 20 20 20 18 18 18 19 19 19 18 17 17 17 18 19 21 22 23 24 25 25 24 23 23 23 24
15 15 15 16 16 17 17 18 19 19 20 20 21 21 22 22 22 23 24 25 26 27 27 26 25 24 24 23 22 21 21 21 21 20 20 20 20 20 19 18 18 18 18 19 19 19 18 18 18 18 19 21 22 23 24 25 25 24 23 23 23 24 24
15 14 15 16 16 16 17 18 19 19 20 20 21 21 22 22 22 23 24 25 25 25 24 23 22 21 20 19 18 19 19 19 19 19 19 18 18 18 18 18 18 19 19 19 19 18 18 18 19 20 21 22 22 23 25 25 24 24 23 24 24 25 26
15 15 15 15 16 16 17 18 19 19 20 20 21 21 22 22 22 23 24 24 23 21 20 19 19 18 17 17 17 18 18 18 18 18 18 18 18 18 18 18 19 19 19 19 19 19 19 19 20 21 22 22 22 24 25 24 24 24 24 25 25 25 26
15 15 16 16 17 18 18 19 20 20 20 20 21 22 22 22 23 23 23 21 20 19 18 18 17 17 17 17 18 18 18 18 18 18 18 18 18 19 18 18 19 18 18 18 19 20 20 21 21 22 22 22 23 24 24 23 24 24 24 24 25 25 26
17 17 17 18 19 19 19 20 21 21 22 22 23 23 23 23 23 23 21 20 19 18 18 18 18 17 18 18 18 18 19 19 19 19 19 19 19 19 19 18 18 18 18 18 18 19 20 20 21 22 22 23 23 23 22 23 23 23 23 24 24 25 26
18 18 19 19 19 20 20 21 22 23 23 24 25 25 24 24 23 22 21 20 19 19 19 19 18 18 18 18 18 18 18 19 19 19 19 19 18 18 18 18 18 18 18 19 19 19 19 20 21 22 23 23 22 22 22 23 23 23 23 24 24 25 25
18 19 20 20 21 21 22 22 23 24 24 24 24 24 24 23 22 21 20 19 19 19 19 19 19 18 18 17 17 18 18 18 18 18 18 18 18 18 18 18 18 19 19 19 20 20 20 21 22 22 22 23 23 23 23 23 24 24 24 24 24 24 24
Wind_Direction
228 228 229 229 229 230 230 229 228 229 230 228 227 226 225 225 225 225 225 226 227 230 232 235 237 238 239 241 244 246 246 247 247 248 249 252 257 261 264 267 270 272 273 273 275 277 279 280 279 278 278 279 280 281 283 287 288 287 286 286 287 290 292
228 227 226 227 228 230 230 229 229 231 232 232 229 228 227 227 225 225 226 227 229 232 234 236 237 238 240 242 244 246 246 247 247 248 250 253 257 261 264 268 270 273 274 274 277 280 281 281 279 278 278 278 279 279 281 283 286 286 284 284 285 287 289
226 226 225 226 228 230 229 229 230 232 232 232 230 229 228 227 227 226 227 228 230 233 235 236 237 239 240 242 244 246 247 248 248 249 251 253 256 260 265 269 272 274 274 274 277 280 281 281 280 279 278 278 278 279 280 282 284 285 284 283 283 285 286
228 226 224 226 228 229 230 229 230 232 233 232 230 229 228 227 227 228 229 230 231 233 234 235 237 239 241 243 245 248 248 249 250 250 251 253 256 261 266 269 270 273 274 275 277 280 281 280 279 279 278 277 278 279 280 281 282 283 282 282 283 284 285
231 228 226 227 227 228 230 230 231 232 232 231 230 229 228 227 227 228 230 231 231 233 234 236 238 240 242 244 246 249 250 251 251 251 253 255 257 261 264 267 269 271 273 275 277 278 278 278 277 278 277 276 276 278 279 280 281 282 281 281 283 285 286
230 229 228 228 227 227 228 229 231 231 231 230 228 228 228 227 227 227 229 229 230 233 235 237 239 241 243 246 248 250 252 253 253 253 254 256 258 260 263 266 268 269 272 274 276 277 276 276 276 276 277 275 274 276 277 278 280 281 280 281 283 285 286
233 232 229 227 225 225 226 228 230 229 229 229 228 228 226 226 226 226 227 229 230 232 235 237 240 242 245 247 249 251 252 254 255 255 256 257 258 259 261 264 266 268 271 272 275 276 274 274 275 275 276 274 272 273 275 276 278 279 279 280 282 283 285
239 237 232 226 224 224 224 227 228 227 227 227 227 226 225 225 225 225 227 228 230 233 235 238 241 244 247 249 250 251 252 254 255 255 255 256 257 258 260 262 265 267 269 271 275 276 273 272 274 276 277 274 271 271 273 274 276 277 276 278 281 282 282
244 240 233 225 221 223 224 227 227 226 225 224 223 223 224 225 227 227 227 229 231 234 236 239 243 246 248 251 252 253 254 255 255 255 254 255 258 259 260 263 265 266 267 270 274 275 272 272 275 278 279 276 273 272 272 273 273 273 274 277 279 280 281
246 239 230 221 219 222 224 225 227 227 225 224 223 224 224 226 227 228 229 231 233 236 238 241 245 247 250 252 254 256 256 255 256 256 255 257 260 261 262 265 266 266 266 268 272 273 272 273 274 276 279 278 275 273 272 272 271 271 272 275 277 278 278
246 234 224 218 219 221 223 225 227 228 226 225 225 225 224 225 227 229 231 233 236 239 241 243 246 249 252 253 255 257 257 256 257 257 257 259 261 261 263 265 266 267 267 267 269 270 271 273 274 275 277 277 275 273 272 271 270 270 270 272 275 276 276
241 231 224 221 221 221 222 225 227 227 227 226 225 224 224 225 227 230 232 235 238 241 244 246 249 251 253 255 257 258 258 258 257 257 258 261 262 262 261 263 266 267 266 267 270 271 271 272 272 274 276 275 273 272 271 270 270 270 269 270 272 272 272
238 230 226 224 222 222 224 226 226 225 226 226 224 224 226 228 229 231 234 237 240 244 247 249 251 252 254 256 258 258 259 259 258 258 260 262 265 265 263 264 267 266 266 269 272 273 272 270 271 274 275 272 270 270 269 268 269 270 267 266 268 269 270
236 229 225 223 222 223 225 226 225 225 226 225 224 225 228 230 231 233 236 239 242 245 248 251 252 254 256 257 259 260 260 261 260 260 262 263 265 266 266 267 268 268 269 272 275 275 274 272 274 276 274 271 269 268 266 265 266 266 264 263 266 267 269
232 227 225 222 223 225 227 226 224 224 226 225 225 226 228 231 233 235 238 242 244 246 249 251 253 254 256 257 259 261 262 263 263 263 264 264 264 266 268 270 272 271 269 271 276 277 274 274 277 278 275 273 270 267 264 263 263 262 261 262 265 266 268
229 227 225 222 224 226 227 226 225 226 226 226 227 227 228 231 233 235 239 242 244 247 249 252 253 255 257 258 260 262 262 264 266 265 266 266 266 266 267 270 275 275 270 269 274 273 271 273 278 279 278 277 274 269 264 263 262 260 259 261 264 266 269
228 227 224 222 224 227 227 227 227 227 228 229 229 229 230 233 234 236 240 244 247 249 250 253 256 258 259 260 261 262 264 266 267 268 268 267 266 267 268 270 277 280 275 271 270 268 268 271 276 278 280 280 277 272 266 264 261 259 258 260 263 266 269
228 227 223 222 225 226 226 227 228 229 230 230 231 232 232 234 236 239 243 247 250 252 253 256 259 260 261 263 263 264 266 267 269 270 269 267 268 271 275 278 281 282 278 274 272 270 268 268 273 279 281 280 279 274 269 265 261 258 258 260 262 265 268
232 230 227 226 227 228 228 228 229 230 231 231 231 232 232 234 237 242 247 251 253 254 256 258 259 260 262 263 263 264 266 269 272 274 274 275 276 278 281 281 281 280 278 276 277 277 271 266 270 279 281 279 279 277 272 267 262 259 259 260 262 265 268
236 235 234 233 232 233 232 230 229 230 231 233 233 233 234 236 240 244 249 251 253 255 258 260 260 260 262 263 263 264 267 270 273 275 278 281 282 281 282 281 280 281 281 280 281 283 277 269 270 275 278 278 278 278 277 272 263 260 259 260 263 267 269
234 234 234 233 233 233 231 228 229 230 232 234 235 233 233 236 238 241 246 250 254 257 260 262 262 263 264 264 264 265 267 270 272 273 277 281 282 281 283 284 283 283 284 283 282 282 280 276 275 274 274 276 276 277 280 276 266 260 260 261 265 269 272
233 233 232 232 233 231 227 225 226 228 230 231 229 228 229 233 235 240 248 255 258 261 263 263 264 264 265 266 266 267 268 270 270 272 276 279 282 283 284 285 284 283 284 285 285 283 280 280 280 275 272 274 276 275 279 277 266 259 261 264 268 272 274
234 234 234 234 234 230 224 220 219 222 225 224 222 224 228 233 238 243 252 259 261 261 262 262 263 264 265 267 269 269 271 271 271 273 275 279 282 284 285 285 284 284 286 287 287 286 282 280 280 276 271 272 275 276 276 272 264 263 264 266 270 274 276
232 233 234 234 230 225 220 217 216 219 222 221 221 225 230 236 242 249 257 262 262 262 262 262 264 266 267 270 272 273 273 273 273 273 276 280 283 284 285 286 286 286 288 288 289 288 284 281 280 276 271 271 273 275 272 267 266 269 268 266 270 274 278
228 230 229 225 221 218 217 215 216 220 223 224 226 231 236 242 249 256 261 263 262 262 264 265 268 269 270 273 275 275 274 274 274 275 277 279 282 284 285 287 288 288 289 290 290 288 285 282 280 274 270 270 273 273 269 266 269 270 267 268 274 278 281
223 222 218 214 214 216 216 216 217 219 222 226 231 237 243 249 256 263 265 263 262 264 267 270 271 272 273 274 275 275 274 275 276 277 277 278 280 283 285 286 287 289 290 291 290 288 285 283 280 274 269 270 273 273 269 268 270 270 270 274 280 283 283
213 209 208 209 212 215 217 218 218 219 222 228 235 241 247 253 260 266 267 265 265 268 271 272 272 272 273 274 274 274 274 275 276 275 275 278 280 282 284 285 287 289 290 289 288 286 284 282 279 275 272 272 273 272 269 269 270 271 276 281 284 285 285
201 199 201 205 211 216 218 218 219 222 227 234 240 244 249 254 260 266 269 269 270 272 273 273 271 272 273 274 274 275 274 274 274 273 274 278 280 281 282 284 285 287 288 287 285 282 280 280 280 278 276 275 275 272 271 272 272 275 281 286 287 286 286
197 199 202 208 213 219 221 223 226 231 236 239 243 247 251 255 261 267 271 272 273 274 275 273 271 272 273 274 276 277 274 271 270 271 273 277 279 280 280 281 282 283 284 285 283 280 279 280 280 278 277 277 276 275 276 277 278 281 286 288 288 288 289
200 203 208 215 219 223 228 231 236 241 243 244 247 251 254 258 263 269 273 275 276 277 277 275 273 272 272 274 276 274 270 268 268 270 272 275 278 279 279 279 279 280 282 281 280 281 282 281 278 276 277 277 277 278 281 282 284 287 287 286 286 288 290
214 215 220 226 230 233 237 238 240 245 249 251 253 257 260 263 267 271 274 277 278 279 278 277 275 272 271 273 273 270 266 266 267 269 271 273 276 278 278 278 279 280 280 278 279 283 283 279 277 277 277 278 279 282 284 287 289 289 288 286 285 286 288
225 228 232 236 240 243 244 243 244 249 255 257 259 261 264 268 272 275 277 278 279 279 278 277 275 272 270 270 269 267 265 266 266 268 269 270 273 277 278 278 280 282 280 278 279 281 280 279 279 279 278 279 281 283 286 289 289 288 288 287 285 286 290
228 235 240 243 246 247 248 248 250 253 257 259 261 264 267 271 275 278 279 279 280 280 279 275 273 272 270 268 267 266 265 264 264 265 266 268 272 277 278 278 281 282 280 278 278 278 278 278 279 280 281 282 283 285 288 289 288 287 286 286 286 289 293
232 239 244 246 249 250 252 253 254 256 258 260 263 265 269 273 277 280 281 280 278 278 276 273 272 271 269 267 265 266 266 264 264 264 265 268 273 276 277 279 282 282 279 277 276 276 277 278 280 282 284 285 286 287 288 287 285 285 285 286 288 291 293
236 241 245 248 250 253 256 258 259 259 261 262 264 266 269 273 278 282 283 279 275 272 271 270 270 270 268 267 267 268 268 267 266 266 266 269 273 276 277 280 282 281 279 278 278 278 278 280 282 285 285 285 286 286 285 284 284 286 286 288 290 293 295
244 247 250 252 254 257 259 261 263 263 263 263 265 267 270 274 278 281 280 276 271 268 266 266 268 268 268 269 270 270 269 268 267 266 267 269 270 272 275 278 279 278 278 281 281 280 280 283 285 287 287 286 286 285 284 284 286 287 289 290 293 295 297
250 252 254 255 258 262 264 265 266 266 265 265 265 267 270 274 277 278 276 272 268 265 263 263 265 268 270 271 272 270 269 269 268 266 266 268 269 270 273 275 277 277 278 281 282 282 284 287 289 289 289 287 285 284 285 286 288 289 291 293 296 297 298
253 254 256 258 261 264 267 268 269 268 267 267 266 267 270 273 274 273 272 269 266 263 262 261 264 269 272 273 272 270 268 268 267 265 265 266 268 269 271 272 275 277 278 280 282 284 287 289 290 289 288 286 284 283 284 287 289 290 292 295 297 298 299